Time,TemperatureF,DewpointF,PressureIn,WindDirection,WindDirectionDegrees,WindSpeedMPH,WindSpeedGustMPH,Humidity,HourlyPrecipIn,Conditions,Clouds,dailyrainin,SoftwareType,DateUTC
2013-08-16 00:00:00,64.9,64.6,29.96,West,270,4.0,4.0,99,0.00,,,0.00,meteohub,2013-08-16 07:00:00,
2013-08-16 00:05:00,64.9,64.6,29.96,West,270,2.0,4.0,99,0.00,,,0.00,meteohub,2013-08-16 07:05:00,
2013-08-16 00:10:00,64.8,64.4,29.96,NW,315,4.0,4.0,99,0.00,,,0.00,meteohub,2013-08-16 07:10:00,
2013-08-16 00:15:00,64.8,64.4,29.96,West,270,2.0,4.0,99,0.00,,,0.00,meteohub,2013-08-16 07:15:00,
2013-08-16 00:20:00,64.8,64.4,29.96,West,270,2.0,4.0,99,0.00,,,0.00,meteohub,2013-08-16 07:20:00,
2013-08-16 00:25:00,64.8,64.4,29.95,West,270,2.0,4.0,99,0.00,,,0.00,meteohub,2013-08-16 07:25:00,
2013-08-16 00:30:00,64.6,64.2,29.95,West,270,2.0,4.0,99,0.00,,,0.00,meteohub,2013-08-16 07:30:00,
2013-08-16 00:35:00,64.6,64.2,29.96,West,270,3.0,3.0,99,0.00,,,0.00,meteohub,2013-08-16 07:35:00,
2013-08-16 00:40:00,64.4,64.0,29.96,West,270,1.0,3.0,99,0.00,,,0.00,meteohub,2013-08-16 07:40:00,
2013-08-16 00:45:00,64.6,64.2,29.96,West,270,1.0,3.0,99,0.00,,,0.00,meteohub,2013-08-16 07:45:00,
2013-08-16 00:50:00,64.4,64.0,29.95,West,270,2.0,3.0,99,0.00,,,0.00,meteohub,2013-08-16 07:50:00,
2013-08-16 00:55:00,64.4,64.0,29.96,West,270,2.0,3.0,99,0.00,,,0.00,meteohub,2013-08-16 07:55:00,
2013-08-16 01:00:00,64.4,64.0,29.95,West,270,3.0,3.0,99,0.00,,,0.00,meteohub,2013-08-16 08:00:00,
2013-08-16 01:05:00,64.4,64.0,29.95,West,270,3.0,3.0,99,0.00,,,0.00,meteohub,2013-08-16 08:05:00,
2013-08-16 01:10:00,64.2,63.9,29.95,West,270,1.0,4.0,99,0.00,,,0.00,meteohub,2013-08-16 08:10:00,
2013-08-16 01:15:00,64.2,63.9,29.95,West,270,2.0,4.0,99,0.00,,,0.00,meteohub,2013-08-16 08:15:00,
2013-08-16 01:20:00,64.2,63.9,29.95,West,270,3.0,4.0,99,0.00,,,0.00,meteohub,2013-08-16 08:20:00,
2013-08-16 01:25:00,64.2,63.9,29.95,West,270,2.0,4.0,99,0.00,,,0.00,meteohub,2013-08-16 08:25:00,
2013-08-16 01:30:00,64.0,63.7,29.95,West,270,3.0,4.0,99,0.00,,,0.00,meteohub,2013-08-16 08:30:00,
2013-08-16 01:35:00,64.0,63.7,29.95,West,270,3.0,4.0,99,0.00,,,0.00,meteohub,2013-08-16 08:35:00,
2013-08-16 01:40:00,64.0,63.7,29.95,West,270,3.0,4.0,99,0.00,,,0.00,meteohub,2013-08-16 08:40:00,
2013-08-16 01:45:00,64.0,63.7,29.95,NW,315,3.0,4.0,99,0.00,,,0.00,meteohub,2013-08-16 08:45:00,
2013-08-16 01:50:00,64.0,63.7,29.95,NW,315,4.0,4.0,99,0.00,,,0.00,meteohub,2013-08-16 08:50:00,
2013-08-16 01:55:00,64.0,63.7,29.94,NW,315,2.0,4.0,99,0.00,,,0.00,meteohub,2013-08-16 08:55:00,
2013-08-16 02:00:00,64.0,63.7,29.94,NW,315,2.0,4.0,99,0.00,,,0.00,meteohub,2013-08-16 09:00:00,
2013-08-16 02:05:00,64.0,63.7,29.95,NW,315,4.0,4.0,99,0.00,,,0.00,meteohub,2013-08-16 09:05:00,
2013-08-16 02:10:00,64.0,63.7,29.94,NW,315,4.0,4.0,99,0.00,,,0.00,meteohub,2013-08-16 09:10:00,
2013-08-16 02:15:00,64.2,63.9,29.94,NW,315,3.0,4.0,99,0.00,,,0.00,meteohub,2013-08-16 09:15:00,
2013-08-16 02:20:00,64.0,63.7,29.94,NW,315,4.0,5.0,99,0.00,,,0.00,meteohub,2013-08-16 09:20:00,
2013-08-16 02:25:00,64.2,63.9,29.94,NW,315,3.0,5.0,99,0.00,,,0.00,meteohub,2013-08-16 09:25:00,
2013-08-16 02:30:00,64.0,63.7,29.94,NW,315,4.0,5.0,99,0.00,,,0.00,meteohub,2013-08-16 09:30:00,
2013-08-16 02:35:00,64.0,63.7,29.94,NW,315,2.0,4.0,99,0.00,,,0.00,meteohub,2013-08-16 09:35:00,
2013-08-16 02:40:00,64.0,63.7,29.94,NW,315,2.0,4.0,99,0.00,,,0.00,meteohub,2013-08-16 09:40:00,
2013-08-16 02:45:00,64.0,63.7,29.94,NW,315,2.0,4.0,99,0.00,,,0.00,meteohub,2013-08-16 09:45:00,
2013-08-16 02:49:00,64.0,63.7,29.94,NW,315,2.0,4.0,99,0.00,,,0.00,meteohub,2013-08-16 09:49:00,
2013-08-16 02:54:00,64.0,63.7,29.94,NW,315,2.0,4.0,99,0.00,,,0.00,meteohub,2013-08-16 09:54:00,
2013-08-16 02:59:00,64.0,63.7,29.94,NW,315,2.0,4.0,99,0.00,,,0.00,meteohub,2013-08-16 09:59:00,
2013-08-16 03:04:00,63.9,63.5,29.94,NW,315,2.0,4.0,99,0.00,,,0.00,meteohub,2013-08-16 10:04:00,
2013-08-16 03:09:00,64.0,63.7,29.94,NW,315,4.0,4.0,99,0.00,,,0.00,meteohub,2013-08-16 10:09:00,
2013-08-16 03:14:00,63.9,63.5,29.94,NW,315,2.0,4.0,99,0.00,,,0.00,meteohub,2013-08-16 10:14:00,
2013-08-16 03:19:00,63.9,63.5,29.94,NW,315,4.0,4.0,99,0.00,,,0.00,meteohub,2013-08-16 10:19:00,
2013-08-16 03:24:00,63.9,63.5,29.94,NW,315,2.0,4.0,99,0.00,,,0.00,meteohub,2013-08-16 10:24:00,
2013-08-16 03:29:00,63.9,63.5,29.94,NW,315,0.0,4.0,99,0.00,,,0.00,meteohub,2013-08-16 10:29:00,
2013-08-16 03:34:00,63.9,63.5,29.94,NW,315,0.0,4.0,99,0.00,,,0.00,meteohub,2013-08-16 10:34:00,
2013-08-16 03:39:00,63.9,63.5,29.94,NW,315,2.0,3.0,99,0.00,,,0.00,meteohub,2013-08-16 10:39:00,
2013-08-16 03:44:00,63.9,63.5,29.94,NW,315,2.0,4.0,99,0.00,,,0.00,meteohub,2013-08-16 10:44:00,
2013-08-16 03:49:00,63.9,63.5,29.94,NW,315,3.0,4.0,99,0.00,,,0.00,meteohub,2013-08-16 10:49:00,
2013-08-16 03:54:00,63.7,63.3,29.94,NW,315,2.0,4.0,99,0.00,,,0.00,meteohub,2013-08-16 10:54:00,
2013-08-16 03:59:00,63.9,63.5,29.94,NW,315,2.0,3.0,99,0.00,,,0.00,meteohub,2013-08-16 10:59:00,
2013-08-16 04:04:00,63.9,63.5,29.94,NW,315,2.0,3.0,99,0.00,,,0.00,meteohub,2013-08-16 11:04:00,
2013-08-16 04:09:00,63.9,63.5,29.94,NW,315,4.0,4.0,99,0.00,,,0.00,meteohub,2013-08-16 11:09:00,
2013-08-16 04:14:00,63.9,63.5,29.93,West,270,2.0,3.0,99,0.00,,,0.00,meteohub,2013-08-16 11:14:00,
2013-08-16 04:19:00,63.9,63.5,29.93,West,270,2.0,4.0,99,0.00,,,0.00,meteohub,2013-08-16 11:19:00,
2013-08-16 04:24:00,63.9,63.5,29.93,West,270,3.0,4.0,99,0.00,,,0.00,meteohub,2013-08-16 11:24:00,
2013-08-16 04:29:00,63.9,63.5,29.94,West,270,4.0,4.0,99,0.00,,,0.00,meteohub,2013-08-16 11:29:00,
2013-08-16 04:34:00,63.9,63.5,29.94,WSW,248,4.0,4.0,99,0.00,,,0.00,meteohub,2013-08-16 11:34:00,
2013-08-16 04:39:00,63.9,63.5,29.93,NW,315,3.0,4.0,99,0.00,,,0.00,meteohub,2013-08-16 11:39:00,
2013-08-16 04:44:00,63.9,63.5,29.93,West,270,2.0,4.0,99,0.00,,,0.00,meteohub,2013-08-16 11:44:00,
2013-08-16 04:49:00,63.9,63.5,29.93,West,270,2.0,4.0,99,0.00,,,0.00,meteohub,2013-08-16 11:49:00,
2013-08-16 04:54:00,63.9,63.5,29.93,West,270,3.0,4.0,99,0.00,,,0.00,meteohub,2013-08-16 11:54:00,
2013-08-16 04:59:00,63.7,63.3,29.93,West,270,1.0,3.0,99,0.00,,,0.00,meteohub,2013-08-16 11:59:00,
2013-08-16 05:04:00,63.7,63.3,29.93,West,270,1.0,3.0,99,0.00,,,0.00,meteohub,2013-08-16 12:04:00,
2013-08-16 05:09:00,63.7,63.3,29.93,West,270,1.0,3.0,99,0.00,,,0.00,meteohub,2013-08-16 12:09:00,
2013-08-16 05:14:00,63.7,63.3,29.93,West,270,0.0,2.0,99,0.00,,,0.00,meteohub,2013-08-16 12:14:00,
2013-08-16 05:19:00,63.7,63.3,29.93,West,270,2.0,2.0,99,0.00,,,0.00,meteohub,2013-08-16 12:19:00,
2013-08-16 05:24:00,63.7,63.3,29.93,West,270,2.0,2.0,99,0.00,,,0.00,meteohub,2013-08-16 12:24:00,
2013-08-16 05:29:00,63.7,63.3,29.94,West,270,0.0,3.0,99,0.00,,,0.00,meteohub,2013-08-16 12:29:00,
2013-08-16 05:34:00,63.7,63.3,29.93,West,270,0.0,3.0,99,0.00,,,0.00,meteohub,2013-08-16 12:34:00,
2013-08-16 05:39:00,63.5,63.1,29.93,West,270,0.0,3.0,99,0.00,,,0.00,meteohub,2013-08-16 12:39:00,
2013-08-16 05:44:00,63.7,63.3,29.93,West,270,0.0,1.0,99,0.00,,,0.00,meteohub,2013-08-16 12:44:00,
2013-08-16 05:49:00,63.7,63.3,29.94,West,270,2.0,0.0,99,0.00,,,0.00,meteohub,2013-08-16 12:49:00,
2013-08-16 05:55:00,63.5,63.1,29.94,West,270,1.0,3.0,99,0.00,,,0.00,meteohub,2013-08-16 12:55:00,
2013-08-16 05:59:00,63.7,63.3,29.94,West,270,1.0,3.0,99,0.00,,,0.00,meteohub,2013-08-16 12:59:00,
2013-08-16 06:04:00,63.7,63.3,29.94,West,270,3.0,3.0,99,0.00,,,0.00,meteohub,2013-08-16 13:04:00,
2013-08-16 06:10:00,63.7,63.3,29.94,West,270,3.0,3.0,99,0.00,,,0.00,meteohub,2013-08-16 13:10:00,
2013-08-16 06:15:00,63.7,63.3,29.94,West,270,2.0,4.0,99,0.00,,,0.00,meteohub,2013-08-16 13:15:00,
2013-08-16 06:20:00,63.7,63.3,29.94,West,270,2.0,4.0,99,0.00,,,0.00,meteohub,2013-08-16 13:20:00,
2013-08-16 06:25:00,63.7,63.3,29.94,West,270,2.0,3.0,99,0.00,,,0.00,meteohub,2013-08-16 13:25:00,
2013-08-16 06:30:00,63.7,63.3,29.94,West,270,1.0,2.0,99,0.00,,,0.00,meteohub,2013-08-16 13:30:00,
2013-08-16 06:35:00,63.7,63.3,29.94,West,270,1.0,2.0,99,0.00,,,0.00,meteohub,2013-08-16 13:35:00,
2013-08-16 06:40:00,63.7,63.3,29.94,West,270,2.0,2.0,99,0.00,,,0.00,meteohub,2013-08-16 13:40:00,
2013-08-16 06:45:00,63.7,63.3,29.94,West,270,2.0,4.0,99,0.00,,,0.00,meteohub,2013-08-16 13:45:00,
2013-08-16 06:50:00,63.7,63.3,29.95,West,270,2.0,4.0,99,0.00,,,0.00,meteohub,2013-08-16 13:50:00,
2013-08-16 06:55:00,63.9,63.5,29.95,WNW,293,3.0,4.0,99,0.00,,,0.00,meteohub,2013-08-16 13:55:00,
2013-08-16 07:00:00,63.9,63.5,29.96,West,270,4.0,4.0,99,0.00,,,0.00,meteohub,2013-08-16 14:00:00,
2013-08-16 07:05:00,63.9,63.5,29.95,NW,315,4.0,4.0,99,0.00,,,0.00,meteohub,2013-08-16 14:05:00,
2013-08-16 07:10:00,64.0,63.7,29.95,West,270,2.0,4.0,99,0.00,,,0.00,meteohub,2013-08-16 14:10:00,
2013-08-16 07:15:00,64.2,63.9,29.95,West,270,2.0,4.0,99,0.00,,,0.00,meteohub,2013-08-16 14:15:00,
2013-08-16 07:20:00,64.4,64.0,29.95,NW,315,4.0,4.0,99,0.00,,,0.00,meteohub,2013-08-16 14:20:00,
2013-08-16 07:25:00,64.4,64.0,29.95,NW,315,4.0,4.0,99,0.00,,,0.00,meteohub,2013-08-16 14:25:00,
2013-08-16 07:30:00,64.4,64.0,29.96,NW,315,2.0,4.0,99,0.00,,,0.00,meteohub,2013-08-16 14:30:00,
2013-08-16 07:35:00,64.6,64.2,29.96,NW,315,1.0,4.0,99,0.00,,,0.00,meteohub,2013-08-16 14:35:00,
2013-08-16 07:40:00,64.8,64.4,29.96,NW,315,3.0,4.0,99,0.00,,,0.00,meteohub,2013-08-16 14:40:00,
2013-08-16 07:45:00,64.6,64.2,29.96,NNE,23,2.0,4.0,99,0.00,,,0.00,meteohub,2013-08-16 14:45:00,
2013-08-16 07:50:00,64.6,64.2,29.96,NNE,23,1.0,4.0,99,0.00,,,0.00,meteohub,2013-08-16 14:50:00,
2013-08-16 07:55:00,65.1,64.8,29.96,NNE,23,2.0,4.0,99,0.00,,,0.00,meteohub,2013-08-16 14:55:00,
2013-08-16 08:00:00,65.3,64.9,29.96,NNE,23,2.0,4.0,99,0.00,,,0.00,meteohub,2013-08-16 15:00:00,
2013-08-16 08:05:00,65.5,65.1,29.97,NNE,23,2.0,3.0,99,0.00,,,0.00,meteohub,2013-08-16 15:05:00,
2013-08-16 08:10:00,65.7,65.3,29.97,NNE,23,2.0,3.0,99,0.00,,,0.00,meteohub,2013-08-16 15:10:00,
2013-08-16 08:15:00,65.7,65.3,29.96,NNE,23,2.0,3.0,99,0.00,,,0.00,meteohub,2013-08-16 15:15:00,
2013-08-16 08:20:00,66.0,65.7,29.97,NNE,23,1.0,3.0,99,0.00,,,0.00,meteohub,2013-08-16 15:20:00,
2013-08-16 08:25:00,66.0,65.7,29.97,NW,315,2.0,4.0,99,0.00,,,0.00,meteohub,2013-08-16 15:25:00,
2013-08-16 08:30:00,66.2,65.8,29.97,NW,315,1.0,4.0,99,0.00,,,0.00,meteohub,2013-08-16 15:30:00,
2013-08-16 08:35:00,66.4,66.0,29.97,NW,315,0.0,4.0,99,0.00,,,0.00,meteohub,2013-08-16 15:35:00,
2013-08-16 08:40:00,66.9,66.6,29.97,NW,315,2.0,4.0,99,0.00,,,0.00,meteohub,2013-08-16 15:40:00,
2013-08-16 08:45:00,67.3,66.9,29.97,NW,315,4.0,4.0,99,0.00,,,0.00,meteohub,2013-08-16 15:45:00,
2013-08-16 08:50:00,67.6,67.3,29.96,West,270,2.0,4.0,99,0.00,,,0.00,meteohub,2013-08-16 15:50:00,
2013-08-16 08:55:00,68.9,68.5,29.97,NW,315,2.0,4.0,99,0.00,,,0.00,meteohub,2013-08-16 15:55:00,
2013-08-16 09:00:00,70.2,69.6,29.96,North,0,3.0,4.0,98,0.00,,,0.00,meteohub,2013-08-16 16:00:00,
2013-08-16 09:05:00,71.6,69.4,29.96,North,0,2.0,4.0,93,0.00,,,0.00,meteohub,2013-08-16 16:05:00,
2013-08-16 09:10:00,74.1,70.7,29.97,North,0,2.0,4.0,89,0.00,,,0.00,meteohub,2013-08-16 16:10:00,
2013-08-16 09:15:00,75.9,70.0,29.96,North,0,3.0,3.0,82,0.00,,,0.00,meteohub,2013-08-16 16:15:00,
2013-08-16 09:20:00,77.5,69.4,29.96,North,0,3.0,3.0,76,0.00,,,0.00,meteohub,2013-08-16 16:20:00,
2013-08-16 09:25:00,77.5,68.5,29.96,North,0,2.0,4.0,74,0.00,,,0.00,meteohub,2013-08-16 16:25:00,
2013-08-16 09:30:00,79.0,70.0,29.97,North,0,2.0,4.0,74,0.00,,,0.00,meteohub,2013-08-16 16:30:00,
2013-08-16 09:35:00,79.0,67.5,29.96,West,270,4.0,4.0,68,0.00,,,0.00,meteohub,2013-08-16 16:35:00,
2013-08-16 09:40:00,77.0,66.9,29.96,NW,315,3.0,5.0,71,0.00,,,0.00,meteohub,2013-08-16 16:40:00,
2013-08-16 09:45:00,77.4,68.0,29.97,NW,315,2.0,5.0,73,0.00,,,0.00,meteohub,2013-08-16 16:45:00,
2013-08-16 09:50:00,77.5,67.5,29.97,West,270,6.0,6.0,71,0.00,,,0.00,meteohub,2013-08-16 16:50:00,
2013-08-16 09:55:00,76.5,67.6,29.97,NW,315,6.0,8.0,74,0.00,,,0.00,meteohub,2013-08-16 16:55:00,
2013-08-16 10:00:00,77.0,68.5,29.97,West,270,3.0,8.0,75,0.00,,,0.00,meteohub,2013-08-16 17:00:00,
2013-08-16 10:05:00,76.1,68.0,29.97,West,270,4.0,7.0,76,0.00,,,0.00,meteohub,2013-08-16 17:05:00,
2013-08-16 10:10:00,76.3,67.8,29.97,NW,315,6.0,7.0,75,0.00,,,0.00,meteohub,2013-08-16 17:10:00,
2013-08-16 10:15:00,76.8,67.5,29.97,West,270,4.0,7.0,73,0.00,,,0.00,meteohub,2013-08-16 17:15:00,
2013-08-16 10:20:00,76.6,68.2,29.97,West,270,4.0,7.0,75,0.00,,,0.00,meteohub,2013-08-16 17:20:00,
2013-08-16 10:26:00,76.3,67.8,29.97,West,270,4.0,8.0,75,0.00,,,0.00,meteohub,2013-08-16 17:26:00,
2013-08-16 10:31:00,76.3,67.8,29.97,NW,315,8.0,8.0,75,0.00,,,0.00,meteohub,2013-08-16 17:31:00,
2013-08-16 10:36:00,75.7,67.6,29.97,West,270,4.0,10.0,76,0.00,,,0.00,meteohub,2013-08-16 17:36:00,
2013-08-16 10:41:00,76.1,67.6,29.97,West,270,8.0,10.0,75,0.00,,,0.00,meteohub,2013-08-16 17:41:00,
2013-08-16 10:46:00,76.8,67.8,29.97,NW,315,7.0,10.0,74,0.00,,,0.00,meteohub,2013-08-16 17:46:00,
2013-08-16 10:51:00,76.8,67.1,29.97,West,270,11.0,11.0,72,0.00,,,0.00,meteohub,2013-08-16 17:51:00,
2013-08-16 10:56:00,75.6,67.1,29.97,NW,315,11.0,11.0,75,0.00,,,0.00,meteohub,2013-08-16 17:56:00,
2013-08-16 11:01:00,75.0,67.3,29.97,West,270,9.0,11.0,77,0.00,,,0.00,meteohub,2013-08-16 18:01:00,
2013-08-16 11:06:00,74.5,67.1,29.96,West,270,8.0,11.0,78,0.00,,,0.00,meteohub,2013-08-16 18:06:00,
2013-08-16 11:11:00,74.1,67.1,29.97,NW,315,8.0,11.0,79,0.00,,,0.00,meteohub,2013-08-16 18:11:00,
2013-08-16 11:16:00,74.8,67.5,29.97,West,270,7.0,10.0,78,0.00,,,0.00,meteohub,2013-08-16 18:16:00,
2013-08-16 11:21:00,75.4,66.9,29.97,NW,315,11.0,11.0,75,0.00,,,0.00,meteohub,2013-08-16 18:21:00,
2013-08-16 11:26:00,74.3,66.9,29.98,West,270,8.0,11.0,78,0.00,,,0.00,meteohub,2013-08-16 18:26:00,
2013-08-16 11:31:00,74.1,67.1,29.97,NW,315,13.0,13.0,79,0.00,,,0.00,meteohub,2013-08-16 18:31:00,
2013-08-16 11:36:00,73.9,67.5,29.98,NW,315,8.0,13.0,80,0.00,,,0.00,meteohub,2013-08-16 18:36:00,
2013-08-16 11:41:00,74.3,67.3,29.97,NW,315,6.0,13.0,79,0.00,,,0.00,meteohub,2013-08-16 18:41:00,
2013-08-16 11:46:00,73.8,66.9,29.98,WNW,293,9.0,13.0,79,0.00,,,0.00,meteohub,2013-08-16 18:46:00,
2013-08-16 11:51:00,73.9,67.1,29.97,NW,315,9.0,11.0,79,0.00,,,0.00,meteohub,2013-08-16 18:51:00,
2013-08-16 11:56:00,73.8,66.9,29.97,West,270,7.0,11.0,79,0.00,,,0.00,meteohub,2013-08-16 18:56:00,
2013-08-16 12:01:00,74.3,67.3,29.97,NW,315,8.0,11.0,79,0.00,,,0.00,meteohub,2013-08-16 19:01:00,
2013-08-16 12:06:00,75.0,66.9,29.97,West,270,11.0,11.0,76,0.00,,,0.00,meteohub,2013-08-16 19:06:00,
2013-08-16 12:11:00,74.8,67.1,29.97,WNW,293,8.0,11.0,77,0.00,,,0.00,meteohub,2013-08-16 19:11:00,
2013-08-16 12:16:00,74.5,66.7,29.96,NW,315,9.0,11.0,77,0.00,,,0.00,meteohub,2013-08-16 19:16:00,
2013-08-16 12:21:00,74.1,66.7,29.96,West,270,7.0,11.0,78,0.00,,,0.00,meteohub,2013-08-16 19:21:00,
2013-08-16 12:26:00,73.9,66.2,29.96,WNW,293,11.0,11.0,77,0.00,,,0.00,meteohub,2013-08-16 19:26:00,
2013-08-16 12:31:00,73.9,67.1,29.97,West,270,10.0,11.0,79,0.00,,,0.00,meteohub,2013-08-16 19:31:00,
2013-08-16 12:36:00,74.5,66.4,29.97,NW,315,10.0,12.0,76,0.00,,,0.00,meteohub,2013-08-16 19:36:00,
2013-08-16 12:41:00,75.6,67.1,29.97,WNW,293,13.0,13.0,75,0.00,,,0.00,meteohub,2013-08-16 19:41:00,
2013-08-16 12:46:00,76.3,66.6,29.96,NW,315,8.0,13.0,72,0.00,,,0.00,meteohub,2013-08-16 19:46:00,
2013-08-16 12:51:00,76.8,66.7,29.96,West,270,10.0,13.0,71,0.00,,,0.00,meteohub,2013-08-16 19:51:00,
2013-08-16 12:56:00,76.6,66.6,29.96,North,0,8.0,13.0,71,0.00,,,0.00,meteohub,2013-08-16 19:56:00,
2013-08-16 13:01:00,76.3,66.9,29.96,WNW,293,7.0,13.0,73,0.00,,,0.00,meteohub,2013-08-16 20:01:00,
2013-08-16 13:06:00,77.2,66.6,29.96,NW,315,9.0,11.0,70,0.00,,,0.00,meteohub,2013-08-16 20:06:00,
2013-08-16 13:11:00,76.3,66.6,29.96,NE,45,8.0,11.0,72,0.00,,,0.00,meteohub,2013-08-16 20:11:00,
2013-08-16 13:16:00,76.8,67.1,29.96,WSW,248,8.0,15.0,72,0.00,,,0.00,meteohub,2013-08-16 20:16:00,
2013-08-16 13:21:00,77.2,67.1,29.96,NW,315,7.0,15.0,71,0.00,,,0.00,meteohub,2013-08-16 20:21:00,
2013-08-16 13:26:00,77.2,67.1,29.96,West,270,11.0,11.0,71,0.00,,,0.00,meteohub,2013-08-16 20:26:00,
2013-08-16 13:31:00,76.6,66.6,29.96,NW,315,10.0,11.0,71,0.00,,,0.00,meteohub,2013-08-16 20:31:00,
2013-08-16 13:37:00,76.8,66.7,29.95,West,270,11.0,12.0,71,0.00,,,0.00,meteohub,2013-08-16 20:37:00,
2013-08-16 13:42:00,77.0,67.3,29.96,WNW,293,5.0,12.0,72,0.00,,,0.00,meteohub,2013-08-16 20:42:00,
2013-08-16 13:47:00,77.4,67.3,29.96,WNW,293,10.0,12.0,71,0.00,,,0.00,meteohub,2013-08-16 20:47:00,
2013-08-16 13:52:00,77.4,67.3,29.96,NW,315,9.0,11.0,71,0.00,,,0.00,meteohub,2013-08-16 20:52:00,
2013-08-16 13:57:00,77.2,67.1,29.96,WNW,293,8.0,11.0,71,0.00,,,0.00,meteohub,2013-08-16 20:57:00,
2013-08-16 14:02:00,76.8,67.1,29.95,NW,315,9.0,11.0,72,0.00,,,0.00,meteohub,2013-08-16 21:02:00,
2013-08-16 14:07:00,76.6,66.9,29.95,WNW,293,9.0,11.0,72,0.00,,,0.00,meteohub,2013-08-16 21:07:00,
2013-08-16 14:12:00,77.0,67.3,29.95,NW,315,8.0,11.0,72,0.00,,,0.00,meteohub,2013-08-16 21:12:00,
2013-08-16 14:17:00,77.4,67.6,29.95,West,270,8.0,12.0,72,0.00,,,0.00,meteohub,2013-08-16 21:17:00,
2013-08-16 14:22:00,77.5,66.6,29.95,NW,315,10.0,12.0,69,0.00,,,0.00,meteohub,2013-08-16 21:22:00,
2013-08-16 14:27:00,77.4,66.7,29.94,West,270,8.0,12.0,70,0.00,,,0.00,meteohub,2013-08-16 21:27:00,
2013-08-16 14:32:00,77.0,66.9,29.94,NW,315,9.0,12.0,71,0.00,,,0.00,meteohub,2013-08-16 21:32:00,
2013-08-16 14:37:00,77.4,66.7,29.94,NW,315,8.0,11.0,70,0.00,,,0.00,meteohub,2013-08-16 21:37:00,
2013-08-16 14:42:00,77.7,65.8,29.94,NW,315,6.0,11.0,67,0.00,,,0.00,meteohub,2013-08-16 21:42:00,
2013-08-16 14:47:00,77.9,66.9,29.94,NW,315,7.0,11.0,69,0.00,,,0.00,meteohub,2013-08-16 21:47:00,
2013-08-16 14:52:00,77.5,66.6,29.94,NW,315,11.0,11.0,69,0.00,,,0.00,meteohub,2013-08-16 21:52:00,
2013-08-16 14:57:00,77.5,66.2,29.93,WNW,293,13.0,13.0,68,0.00,,,0.00,meteohub,2013-08-16 21:57:00,
2013-08-16 15:02:00,77.5,67.5,29.93,NW,315,8.0,13.0,71,0.00,,,0.00,meteohub,2013-08-16 22:02:00,
2013-08-16 15:07:00,77.7,66.7,29.93,NW,315,11.0,13.0,69,0.00,,,0.00,meteohub,2013-08-16 22:07:00,
2013-08-16 15:12:00,77.5,66.6,29.92,NW,315,11.0,13.0,69,0.00,,,0.00,meteohub,2013-08-16 22:12:00,
2013-08-16 15:17:00,77.2,66.2,29.93,West,270,12.0,13.0,69,0.00,,,0.00,meteohub,2013-08-16 22:17:00,
2013-08-16 15:22:00,76.6,66.6,29.93,NW,315,13.0,14.0,71,0.00,,,0.00,meteohub,2013-08-16 22:22:00,
2013-08-16 15:27:00,76.6,66.6,29.92,NW,315,11.0,14.0,71,0.00,,,0.00,meteohub,2013-08-16 22:27:00,
2013-08-16 15:32:00,76.6,66.6,29.93,NW,315,14.0,15.0,71,0.00,,,0.00,meteohub,2013-08-16 22:32:00,
2013-08-16 15:37:00,76.6,66.6,29.92,West,270,8.0,15.0,71,0.00,,,0.00,meteohub,2013-08-16 22:37:00,
2013-08-16 15:42:00,75.9,65.8,29.92,NW,315,11.0,15.0,71,0.00,,,0.00,meteohub,2013-08-16 22:42:00,
2013-08-16 15:47:00,76.6,66.2,29.92,WNW,293,11.0,14.0,70,0.00,,,0.00,meteohub,2013-08-16 22:47:00,
2013-08-16 15:52:00,77.2,65.8,29.91,WNW,293,11.0,13.0,68,0.00,,,0.00,meteohub,2013-08-16 22:52:00,
2013-08-16 15:57:00,76.8,66.2,29.92,West,270,11.0,13.0,70,0.00,,,0.00,meteohub,2013-08-16 22:57:00,
2013-08-16 16:02:00,77.0,66.0,29.91,NW,315,8.0,11.0,69,0.00,,,0.00,meteohub,2013-08-16 23:02:00,
2013-08-16 16:07:00,77.2,66.6,29.91,WNW,293,11.0,11.0,70,0.00,,,0.00,meteohub,2013-08-16 23:07:00,
2013-08-16 16:12:00,77.2,66.2,29.91,NW,315,10.0,13.0,69,0.00,,,0.00,meteohub,2013-08-16 23:12:00,
2013-08-16 16:17:00,77.4,66.0,29.91,NW,315,8.0,13.0,68,0.00,,,0.00,meteohub,2013-08-16 23:17:00,
2013-08-16 16:22:00,77.7,66.4,29.91,West,270,8.0,13.0,68,0.00,,,0.00,meteohub,2013-08-16 23:22:00,
2013-08-16 16:27:00,78.6,64.9,29.91,West,270,9.0,11.0,63,0.00,,,0.00,meteohub,2013-08-16 23:27:00,
2013-08-16 16:32:00,79.7,63.7,29.90,West,270,5.0,11.0,58,0.00,,,0.00,meteohub,2013-08-16 23:32:00,
2013-08-16 16:37:00,80.4,63.3,29.91,West,270,5.0,9.0,56,0.00,,,0.00,meteohub,2013-08-16 23:37:00,
2013-08-16 16:42:00,81.7,63.5,29.90,West,270,4.0,9.0,54,0.00,,,0.00,meteohub,2013-08-16 23:42:00,
2013-08-16 16:47:00,82.0,63.1,29.90,NW,315,6.0,8.0,53,0.00,,,0.00,meteohub,2013-08-16 23:47:00,
2013-08-16 16:52:00,81.7,63.0,29.90,NW,315,8.0,8.0,53,0.00,,,0.00,meteohub,2013-08-16 23:52:00,
2013-08-16 16:57:00,81.1,63.5,29.90,West,270,7.0,9.0,55,0.00,,,0.00,meteohub,2013-08-16 23:57:00,
2013-08-16 17:02:00,81.3,63.7,29.90,WNW,293,5.0,9.0,55,0.00,,,0.00,meteohub,2013-08-17 00:02:00,
2013-08-16 17:07:00,81.5,63.9,29.90,NW,315,6.0,9.0,55,0.00,,,0.00,meteohub,2013-08-17 00:07:00,
2013-08-16 17:12:00,81.9,63.5,29.90,NW,315,5.0,8.0,54,0.00,,,0.00,meteohub,2013-08-17 00:12:00,
2013-08-16 17:17:00,82.2,64.4,29.90,West,270,7.0,8.0,55,0.00,,,0.00,meteohub,2013-08-17 00:17:00,
2013-08-16 17:22:00,81.1,64.4,29.90,West,270,6.0,8.0,57,0.00,,,0.00,meteohub,2013-08-17 00:22:00,
2013-08-16 17:27:00,81.0,65.3,29.90,WNW,293,5.0,8.0,59,0.00,,,0.00,meteohub,2013-08-17 00:27:00,
2013-08-16 17:32:00,81.1,66.0,29.90,West,270,9.0,9.0,60,0.00,,,0.00,meteohub,2013-08-17 00:32:00,
2013-08-16 17:37:00,80.2,66.0,29.90,West,270,5.0,9.0,62,0.00,,,0.00,meteohub,2013-08-17 00:37:00,
2013-08-16 17:42:00,80.6,66.4,29.90,West,270,7.0,9.0,62,0.00,,,0.00,meteohub,2013-08-17 00:42:00,
2013-08-16 17:47:00,80.4,66.2,29.90,NW,315,8.0,9.0,62,0.00,,,0.00,meteohub,2013-08-17 00:47:00,
2013-08-16 17:52:00,79.7,66.0,29.90,NW,315,8.0,8.0,63,0.00,,,0.00,meteohub,2013-08-17 00:52:00,
2013-08-16 17:57:00,79.0,66.2,29.90,West,270,8.0,8.0,65,0.00,,,0.00,meteohub,2013-08-17 00:57:00,
2013-08-16 18:02:00,79.2,66.4,29.90,West,270,4.0,9.0,65,0.00,,,0.00,meteohub,2013-08-17 01:02:00,
2013-08-16 18:07:00,79.5,65.8,29.90,West,270,7.0,9.0,63,0.00,,,0.00,meteohub,2013-08-17 01:07:00,
2013-08-16 18:12:00,79.3,66.0,29.89,WNW,293,5.0,9.0,64,0.00,,,0.00,meteohub,2013-08-17 01:12:00,
2013-08-16 18:17:00,79.0,66.2,29.89,West,270,5.0,8.0,65,0.00,,,0.00,meteohub,2013-08-17 01:17:00,
2013-08-16 18:22:00,79.0,66.2,29.89,West,270,4.0,7.0,65,0.00,,,0.00,meteohub,2013-08-17 01:22:00,
2013-08-16 18:27:00,79.0,65.8,29.89,NW,315,5.0,7.0,64,0.00,,,0.00,meteohub,2013-08-17 01:27:00,
2013-08-16 18:32:00,78.4,65.7,29.89,West,270,6.0,7.0,65,0.00,,,0.00,meteohub,2013-08-17 01:32:00,
2013-08-16 18:37:00,78.3,65.5,29.90,NW,315,6.0,7.0,65,0.00,,,0.00,meteohub,2013-08-17 01:37:00,
2013-08-16 18:42:00,78.1,65.8,29.90,West,270,3.0,8.0,66,0.00,,,0.00,meteohub,2013-08-17 01:42:00,
2013-08-16 18:47:00,78.1,65.3,29.90,WNW,293,6.0,8.0,65,0.00,,,0.00,meteohub,2013-08-17 01:47:00,
2013-08-16 18:52:00,77.9,65.7,29.90,West,270,4.0,8.0,66,0.00,,,0.00,meteohub,2013-08-17 01:52:00,
2013-08-16 18:57:00,77.5,65.3,29.90,West,270,5.0,8.0,66,0.00,,,0.00,meteohub,2013-08-17 01:57:00,
2013-08-16 19:03:00,77.2,65.8,29.91,West,270,4.0,6.0,68,0.00,,,0.00,meteohub,2013-08-17 02:03:00,
2013-08-16 19:08:00,76.6,65.7,29.91,West,270,6.0,6.0,69,0.00,,,0.00,meteohub,2013-08-17 02:08:00,
2013-08-16 19:13:00,76.1,65.7,29.91,WNW,293,4.0,6.0,70,0.00,,,0.00,meteohub,2013-08-17 02:13:00,
2013-08-16 19:18:00,75.6,65.8,29.91,West,270,2.0,6.0,72,0.00,,,0.00,meteohub,2013-08-17 02:18:00,
2013-08-16 19:23:00,75.0,66.2,29.91,West,270,2.0,6.0,74,0.00,,,0.00,meteohub,2013-08-17 02:23:00,
2013-08-16 19:28:00,74.5,66.0,29.91,West,270,2.0,6.0,75,0.00,,,0.00,meteohub,2013-08-17 02:28:00,
2013-08-16 19:33:00,73.8,66.0,29.91,West,270,2.0,4.0,77,0.00,,,0.00,meteohub,2013-08-17 02:33:00,
2013-08-16 19:38:00,73.2,66.4,29.91,South,180,2.0,4.0,79,0.00,,,0.00,meteohub,2013-08-17 02:38:00,
2013-08-16 19:43:00,72.5,66.0,29.91,South,180,2.0,3.0,80,0.00,,,0.00,meteohub,2013-08-17 02:43:00,
2013-08-16 19:48:00,72.0,66.2,29.91,West,270,4.0,4.0,82,0.00,,,0.00,meteohub,2013-08-17 02:48:00,
2013-08-16 19:53:00,71.4,66.4,29.91,West,270,3.0,5.0,84,0.00,,,0.00,meteohub,2013-08-17 02:53:00,
2013-08-16 19:58:00,71.2,66.6,29.91,NW,315,4.0,5.0,85,0.00,,,0.00,meteohub,2013-08-17 02:58:00,
2013-08-16 20:03:00,71.1,66.7,29.91,West,270,2.0,5.0,86,0.00,,,0.00,meteohub,2013-08-17 03:03:00,
2013-08-16 20:08:00,70.9,66.7,29.92,West,270,3.0,4.0,87,0.00,,,0.00,meteohub,2013-08-17 03:08:00,
2013-08-16 20:13:00,70.7,66.6,29.92,West,270,3.0,4.0,87,0.00,,,0.00,meteohub,2013-08-17 03:13:00,
2013-08-16 20:18:00,70.9,66.7,29.92,West,270,2.0,4.0,87,0.00,,,0.00,meteohub,2013-08-17 03:18:00,
2013-08-16 20:23:00,70.5,66.4,29.93,West,270,3.0,4.0,87,0.00,,,0.00,meteohub,2013-08-17 03:23:00,
2013-08-16 20:28:00,70.5,66.4,29.93,West,270,3.0,3.0,87,0.00,,,0.00,meteohub,2013-08-17 03:28:00,
2013-08-16 20:33:00,70.5,66.4,29.93,West,270,2.0,3.0,87,0.00,,,0.00,meteohub,2013-08-17 03:33:00,
2013-08-16 20:38:00,70.5,66.2,29.93,West,270,4.0,4.0,86,0.00,,,0.00,meteohub,2013-08-17 03:38:00,
2013-08-16 20:43:00,70.5,66.4,29.94,West,270,4.0,4.0,87,0.00,,,0.00,meteohub,2013-08-17 03:43:00,
2013-08-16 20:48:00,70.3,66.2,29.93,West,270,4.0,4.0,87,0.00,,,0.00,meteohub,2013-08-17 03:48:00,
2013-08-16 20:53:00,70.2,66.0,29.94,West,270,4.0,4.0,87,0.00,,,0.00,meteohub,2013-08-17 03:53:00,
2013-08-16 20:58:00,70.0,66.0,29.94,NW,315,4.0,5.0,87,0.00,,,0.00,meteohub,2013-08-17 03:58:00,
2013-08-16 21:01:00,70.0,66.0,29.94,WNW,293,6.0,6.0,87,0.00,,,0.00,meteohub,2013-08-17 04:01:00,
2013-08-16 21:06:00,69.6,65.7,29.94,WNW,293,5.0,7.0,87,0.00,,,0.00,meteohub,2013-08-17 04:06:00,
2013-08-16 21:11:00,69.4,65.5,29.94,West,270,3.0,7.0,87,0.00,,,0.00,meteohub,2013-08-17 04:11:00,
2013-08-16 21:16:00,69.3,65.5,29.95,West,270,4.0,7.0,88,0.00,,,0.00,meteohub,2013-08-17 04:16:00,
2013-08-16 21:21:00,69.3,65.5,29.95,NW,315,4.0,5.0,88,0.00,,,0.00,meteohub,2013-08-17 04:21:00,
2013-08-16 21:26:00,69.1,65.3,29.95,NW,315,4.0,5.0,88,0.00,,,0.00,meteohub,2013-08-17 04:26:00,
2013-08-16 21:31:00,69.1,65.3,29.95,WNW,293,2.0,5.0,88,0.00,,,0.00,meteohub,2013-08-17 04:31:00,
2013-08-16 21:36:00,68.9,65.5,29.95,West,270,2.0,5.0,89,0.00,,,0.00,meteohub,2013-08-17 04:36:00,
2013-08-16 21:41:00,68.7,65.7,29.96,West,270,3.0,4.0,90,0.00,,,0.00,meteohub,2013-08-17 04:41:00,
2013-08-16 21:46:00,68.4,65.7,29.96,West,270,3.0,4.0,91,0.00,,,0.00,meteohub,2013-08-17 04:46:00,
2013-08-16 21:51:00,68.2,65.5,29.96,West,270,2.0,4.0,91,0.00,,,0.00,meteohub,2013-08-17 04:51:00,
2013-08-16 21:56:00,68.0,65.3,29.96,West,270,1.0,4.0,91,0.00,,,0.00,meteohub,2013-08-17 04:56:00,
2013-08-16 22:01:00,67.8,65.1,29.95,West,270,0.0,4.0,91,0.00,,,0.00,meteohub,2013-08-17 05:01:00,
2013-08-16 22:06:00,67.6,65.5,29.96,SW,225,2.0,4.0,93,0.00,,,0.00,meteohub,2013-08-17 05:06:00,
2013-08-16 22:11:00,67.3,65.5,29.95,West,270,2.0,2.0,94,0.00,,,0.00,meteohub,2013-08-17 05:11:00,
2013-08-16 22:16:00,67.1,65.7,29.95,West,270,2.0,4.0,95,0.00,,,0.00,meteohub,2013-08-17 05:16:00,
2013-08-16 22:21:00,66.9,65.7,29.96,West,270,3.0,4.0,96,0.00,,,0.00,meteohub,2013-08-17 05:21:00,
2013-08-16 22:26:00,66.6,65.3,29.96,West,270,2.0,3.0,96,0.00,,,0.00,meteohub,2013-08-17 05:26:00,
2013-08-16 22:31:00,66.4,65.5,29.96,SW,225,2.0,4.0,97,0.00,,,0.00,meteohub,2013-08-17 05:31:00,
2013-08-16 22:36:00,66.2,65.7,29.95,West,270,2.0,5.0,98,0.00,,,0.00,meteohub,2013-08-17 05:36:00,
2013-08-16 22:41:00,66.2,65.7,29.95,West,270,3.0,5.0,98,0.00,,,0.00,meteohub,2013-08-17 05:41:00,
2013-08-16 22:46:00,66.2,65.8,29.95,West,270,3.0,5.0,99,0.00,,,0.00,meteohub,2013-08-17 05:46:00,
2013-08-16 22:51:00,66.0,65.5,29.95,West,270,1.0,4.0,98,0.00,,,0.00,meteohub,2013-08-17 05:51:00,
2013-08-16 22:56:00,66.0,65.7,29.95,West,270,1.0,4.0,99,0.00,,,0.00,meteohub,2013-08-17 05:56:00,
2013-08-16 23:01:00,65.8,65.5,29.95,West,270,2.0,4.0,99,0.00,,,0.00,meteohub,2013-08-17 06:01:00,
2013-08-16 23:06:00,65.8,65.5,29.95,West,270,1.0,3.0,99,0.00,,,0.00,meteohub,2013-08-17 06:06:00,
2013-08-16 23:11:00,65.7,65.3,29.95,West,270,2.0,3.0,99,0.00,,,0.00,meteohub,2013-08-17 06:11:00,
2013-08-16 23:16:00,65.5,65.1,29.95,West,270,1.0,3.0,99,0.00,,,0.00,meteohub,2013-08-17 06:16:00,
2013-08-16 23:21:00,65.5,65.1,29.95,West,270,1.0,2.0,99,0.00,,,0.00,meteohub,2013-08-17 06:21:00,
2013-08-16 23:26:00,65.3,64.9,29.95,West,270,1.0,2.0,99,0.00,,,0.00,meteohub,2013-08-17 06:26:00,
2013-08-16 23:31:00,65.3,64.9,29.95,West,270,2.0,2.0,99,0.00,,,0.00,meteohub,2013-08-17 06:31:00,
2013-08-16 23:36:00,65.3,64.9,29.95,West,270,1.0,2.0,99,0.00,,,0.00,meteohub,2013-08-17 06:36:00,
2013-08-16 23:41:00,65.3,64.9,29.96,West,270,0.0,2.0,99,0.00,,,0.00,meteohub,2013-08-17 06:41:00,
2013-08-16 23:46:00,65.3,64.9,29.95,West,270,0.0,2.0,99,0.00,,,0.00,meteohub,2013-08-17 06:46:00,
2013-08-16 23:51:00,65.3,64.9,29.95,West,270,2.0,3.0,99,0.00,,,0.00,meteohub,2013-08-17 06:51:00,
2013-08-16 23:56:00,65.3,64.9,29.96,West,270,2.0,3.0,99,0.00,,,0.00,meteohub,2013-08-17 06:56:00,